Regional Weather Roundup
Issued by NWS

Home | Current Version | Previous Version | Graphics & Text | Print | Product List | Glossary On
Versions: 1 2 3 4 5 6 7 8 9 10 11 12 13 14 15 16 17 18 19 20 21 22 23 24 25 26 27 28 29 30 31 32 33 34 35 36 37 38 39 40 41 42 43 44 45 46 47 48 49 50
000
ASUS45 KPSR 222200
RWRAZ

PRELIMINARY ARIZONA REGIONAL HOURLY WEATHER ROUNDUP
NATIONAL WEATHER SERVICE PHOENIX AZ
300 PM MST TUE APR 22 2014

NOTE: FAIR INDICATES FEW OR NO CLOUDS BELOW 12,000 FEET WITH NO
SIGNIFICANT WEATHER AND/OR OBSTRUCTIONS TO VISIBILITY.

AZZ001>003-036-222300-
NORTHWEST ARIZONA

CITY           SKY/WX    TMP DP  RH WIND       PRES   REMARKS
KINGMAN        CLOUDY    79  20  11 SW30G39   29.79F
$$

AZZ004>008-015-016-018-222300-
NORTH CENTRAL ARIZONA

CITY           SKY/WX    TMP DP  RH WIND       PRES   REMARKS
GRAND CANYON   CLOUDY    68  24  19 S22G40    29.92F
WILLIAMS       MOSUNNY   66  25  20 S28G38    30.02F
PRESCOTT       MOSUNNY   74  29  19 S20G30    29.91F
FLAGSTAFF      MOSUNNY   66  27  23 SW23G44   29.98F
PAYSON         MOSUNNY   77  27  15 SW16G23   29.96F
PAGE           CLOUDY    80  24  12 SW12G25   29.72F
$$

AZZ009>014-017-222300-
NORTHEAST ARIZONA

CITY           SKY/WX    TMP DP  RH WIND       PRES   REMARKS
WINSLOW        NOT AVBL
SAINT JOHNS    CLOUDY    79  20  11 SW24G35   29.90F
WINDOW ROCK    CLOUDY    74  20  13 SW24G33   29.95F
SHOW LOW       PTSUNNY   72  19  14 S24G38    29.99F
$$

AZZ023-222300-
GREATER PHOENIX AREA

CITY           SKY/WX    TMP DP  RH WIND       PRES   REMARKS
PHOENIX        PTSUNNY   97  33  10 W16G25    29.70F
GLENDALE       PTSUNNY   95  34  11 S20G31    29.73F
DEER VALLEY    SUNNY     91  33  12 W15G21    29.74F
SCOTTSDALE     SUNNY     92  34  13 SW13G18   29.75F
MESA-GATEWAY   PTSUNNY   93  30  10 SW17G25   29.75F
$$

AZZ027-028-222300-
SOUTHWEST MARICOPA COUNTY AND PINAL COUNTY

CITY           SKY/WX    TMP DP  RH WIND       PRES   REMARKS
CASA GRANDE    MOSUNNY   93  34  12 S14G25    29.75F
GILA BEND      PTCLDY    95  27   8 SW20G31   29.73F
$$

AZZ503-504-507>509-222300-
SOUTHEAST ARIZONA

CITY           SKY/WX    TMP DP  RH WIND       PRES   REMARKS
TUCSON         SUNNY     93  19   7 SW14      29.83F
DAVIS-MONTHAN  SUNNY     91  26   9 W14G28    29.81F
NOGALES        SUNNY     87  25  10 SW24G31   29.91F
SIERRA VISTA   PTSUNNY   84  25  11 SW16G28   29.94F
SAFFORD        PTSUNNY   90  24   9 SW10G23   29.78F
$$

AZZ020-021-025-026-031-222300-
SOUTHWEST ARIZONA

CITY           SKY/WX    TMP DP  RH WIND       PRES   REMARKS
YUMA           PTSUNNY   95  37  13 NW12      29.72F
$$

CAZ031-033-041-043-047-048-061-222300-
SOUTHERN CALIFORNIA

CITY           SKY/WX    TMP DP  RH WIND       PRES   REMARKS
DOWNTOWN L.A.  SUNNY     67  49  52 W6        29.92F
L.A. AIRPORT   MOSUNNY   66  50  56 W16       29.94F
SAN DIEGO      PTSUNNY   67  52  58 W14G23    29.96F
BURBANK        SUNNY     68  48  48 S12       29.90F
ONTARIO        MOSUNNY   71  46  40 VRB7      29.90F
RIVERSIDE      MOSUNNY   73  47  39 VRB7      29.90F
PALM SPRINGS   MOSUNNY   89  21   8 NW18G32   29.74F
EL CENTRO NAS  PTSUNNY   91  29  11 SW29      29.73F
IMPERIAL       PTSUNNY   90  32  12 W21G29    29.72F
BLYTHE         CLOUDY    92  19   7 SW20G30   29.71F
$$

NVZ020-UTZ003-222300-
SOUTHERN NEVADA-UTAH

CITY           SKY/WX    TMP DP  RH WIND       PRES   REMARKS
LAS VEGAS      NOT AVBL
SALT LAKE CITY CLOUDY    74  27  17 S28G40    29.50F
$$

NMZ009-TXZ055-222300-
NEW MEXICO-WEST TEXAS

CITY           SKY/WX    TMP DP  RH WIND       PRES   REMARKS
ALBUQUERQUE    PTSUNNY   80  29  15 S24G35    29.93F
EL PASO        MOSUNNY   88  32  13 SE17      29.88F
$$


........................KEY........................
SKY/WX - SKY CONDITION/WEATHER
TMP    - TEMPERATURE IN FAHRENHEIT
DP     - DEW POINT IN FAHRENHEIT
RH     - RELATIVE HUMIDITY IN PERCENT
WIND   - DIRECTION AND SPEED IN MILES PER HOUR (MPH)
VRB    - VARIABLE WIND DIRECTION
PRES   - MEAN SEA LEVEL PRESSURE IN INCHES OF MERCURY
         F - FALLING PRESSURE   R - RISING PRESSURE
         S - STEADY PRESSURE
VSB    - VISIBILITY IN MILES
HX     - HEAT INDEX IN FAHRENHEIT
WCI    - WIND CHILL INDEX IN FAHRENHEIT
TC     - TEMPERATURE IN CELSIUS WHICH IS ALSO KNOWN AS
         TEMPERATURE IN CENTIGRADE
AFB    - AIR FORCE BASE
         LUKE AFB IS LUKE AIR FORCE BASE
         DAVIS-MONTHAN IS DAVIS-MONTHAN AIR FORCE BASE
NAS    - NAVAL AIR STATION
         EL CENTRO NAS IS EL CENTRO NAVAL AIR STATION
N/A    - NOT AVAILABLE



USA.gov is the U.S. government's official web portal to all federal, state and local government web resources and services.